DW8622 Weather Reports


Display with metric or nautical units.
time (UTC)temp
F
wind
direction
speed
MPH
gust
MPH
rain 1hr
in
rain 24hr
in
rain mn
in
humidity
%
barometer
mb
20260903221005 69 226 5.0 13.0 0.00 0.06 0.00 88 1015.2
20260903220505 69 221 5.0 13.0 0.00 0.06 0.00 88 1015.3
20260903220006 69 223 4.0 13.0 0.00 0.06 0.00 88 1015.2
20260903215505 69 218 5.0 12.0 0.00 0.06 0.06 88 1015.2
20260903215005 69 218 5.0 12.0 0.00 0.06 0.06 88 1015.3
20260903214505 69 228 5.0 11.0 0.00 0.06 0.06 88 1015.4
20260903214005 69 233 5.0 11.0 0.00 0.06 0.06 88 1015.5
20260903213505 69 218 5.0 11.0 0.00 0.06 0.06 88 1015.4
20260903212506 69 220 3.0 10.0 0.00 0.06 0.06 89 1015.5
20260903212005 69 222 3.0 10.0 0.00 0.06 0.06 89 1015.5
20260903211505 69 215 3.0 9.0 0.00 0.06 0.06 88 1015.6
20260903211005 69 213 4.0 11.0 0.00 0.06 0.06 88 1015.5
20260903210505 69 229 5.0 15.0 0.00 0.06 0.06 88 1015.6
20260903210006 69 236 7.0 17.0 0.00 0.06 0.06 87 1015.6
20260903205505 70 248 8.0 17.0 0.00 0.06 0.06 87 1015.7
20260903204505 69 258 10.0 20.0 0.00 0.06 0.06 87 1016.0
20260903204005 69 263 10.0 20.0 0.00 0.06 0.06 87 1016.1
20260903203005 69 252 8.0 17.0 0.00 0.06 0.06 88 1016.1
20260903202506 69 252 7.0 17.0 0.00 0.06 0.06 88 1016.2
20260903202005 69 240 6.0 14.0 0.00 0.06 0.06 88 1016.1
20260903201006 69 241 6.0 15.0 0.00 0.06 0.06 88 1016.0
20260903200006 69 257 5.0 13.0 0.00 0.06 0.06 88 1016.1
20260903195505 69 247 5.0 13.0 0.00 0.06 0.06 88 1016.1
20260903195005 69 255 6.0 14.0 0.00 0.06 0.06 87 1016.1
20260903194505 69 258 7.0 14.0 0.00 0.06 0.06 87 1016.2
20260903194006 69 246 7.0 15.0 0.00 0.06 0.06 87 1016.1
20260903193505 69 249 7.0 16.0 0.00 0.06 0.06 87 1015.9
20260903193007 69 259 7.0 16.0 0.00 0.06 0.06 87 1015.9
20260903192505 69 253 8.0 15.0 0.00 0.06 0.06 87 1016.0
20260903191505 69 240 7.0 15.0 0.00 0.06 0.06 88 1016.0
20260903191005 69 247 7.0 14.0 0.00 0.06 0.06 87 1016.0
20260903190006 69 257 7.0 14.0 0.00 0.06 0.06 87 1016.1
20260903185505 69 253 6.0 13.0 0.00 0.06 0.06 87 1016.3
20260903184505 69 243 5.0 14.0 0.00 0.06 0.06 87 1016.2
20260903183006 70 231 5.0 15.0 0.00 0.06 0.06 86 1016.2
20260903182505 70 231 5.0 13.0 0.00 0.06 0.06 86 1016.2
20260903182005 70 232 4.0 12.0 0.00 0.06 0.06 85 1016.2
20260903181505 70 225 4.0 12.0 0.00 0.06 0.06 85 1016.0
20260903181005 70 230 4.0 11.0 0.00 0.06 0.06 85 1016.2
20260903180505 70 236 4.0 11.0 0.00 0.06 0.06 85 1016.2
20260903180005 70 252 5.0 11.0 0.00 0.06 0.06 84 1016.2
20260903175506 70 249 6.0 13.0 0.00 0.06 0.06 84 1016.4
20260903175006 70 247 6.0 13.0 0.00 0.06 0.06 84 1016.3
20260903174505 71 255 6.0 12.0 0.00 0.06 0.06 83 1016.2
20260903174005 71 256 7.0 13.0 0.00 0.06 0.06 83 1016.5
20260903173506 71 251 8.0 17.0 0.00 0.06 0.06 83 1016.5
20260903172506 71 252 7.0 15.0 0.00 0.06 0.06 82 1016.4
20260903171505 71 253 7.0 14.0 0.00 0.06 0.06 82 1016.4
20260903171005 71 255 7.0 14.0 0.00 0.06 0.06 81 1016.4
20260903170506 72 248 5.0 10.0 0.00 0.06 0.06 81 1016.2
20260903170006 72 253 7.0 17.0 0.00 0.06 0.06 82 1016.2
20260903165005 72 256 9.0 16.0 0.00 0.06 0.06 80 1016.1
20260903164506 72 254 9.0 18.0 0.00 0.06 0.06 80 1016.2
20260903164005 72 252 8.0 18.0 0.00 0.06 0.06 80 1016.0
20260903163505 73 253 8.0 18.0 0.00 0.06 0.06 80 1016.2
20260903163005 73 252 9.0 19.0 0.00 0.06 0.06 79 1016.3
20260903162506 72 256 9.0 19.0 0.00 0.06 0.06 79 1016.6
20260903162006 73 265 9.0 18.0 0.00 0.06 0.06 79 1016.7
20260903161505 73 270 8.0 18.0 0.00 0.06 0.06 77 1016.5
20260903161006 73 263 8.0 17.0 0.00 0.06 0.06 77 1016.4
20260903160006 73 267 9.0 17.0 0.00 0.06 0.06 75 1016.2
20260903155506 73 268 9.0 17.0 0.00 0.06 0.06 76 1016.4
20260903155006 73 265 9.0 17.0 0.00 0.06 0.06 75 1016.4
20260903154506 73 263 10.0 19.0 0.00 0.06 0.06 74 1016.4
20260903154006 74 267 9.0 20.0 0.00 0.06 0.06 73 1016.4
20260903153505 73 266 9.0 20.0 0.00 0.06 0.06 73 1016.4
20260903153006 74 270 9.0 19.0 0.00 0.06 0.06 73 1016.5
20260903152006 74 270 12.0 23.0 0.00 0.06 0.06 72 1016.5
20260903151506 74 264 13.0 23.0 0.00 0.06 0.06 72 1016.4
20260903151006 73 265 12.0 20.0 0.00 0.06 0.06 73 1016.5
20260903150506 74 267 10.0 19.0 0.00 0.06 0.06 74 1016.6
20260903150006 74 261 11.0 21.0 0.00 0.06 0.06 73 1016.5
20260903145506 74 257 11.0 22.0 0.00 0.06 0.06 73 1016.5
20260903145006 74 256 10.0 22.0 0.00 0.06 0.06 74 1016.6
20260903144506 73 259 9.0 18.0 0.00 0.06 0.06 75 1016.5
20260903143506 74 252 10.0 20.0 0.00 0.06 0.06 74 1016.5
20260903143005 75 255 9.0 20.0 0.00 0.06 0.06 72 1016.5
20260903142506 75 264 10.0 22.0 0.00 0.06 0.06 73 1016.5
20260903142005 75 267 11.0 22.0 0.00 0.06 0.06 71 1016.4
20260903141505 74 263 11.0 21.0 0.00 0.06 0.06 72 1016.4
20260903141006 74 263 11.0 21.0 0.00 0.06 0.06 72 1016.7
20260903140506 74 266 10.0 18.0 0.00 0.06 0.06 71 1016.5
20260903140005 75 268 9.0 17.0 0.00 0.06 0.06 71 1016.5
20260903135506 74 269 9.0 18.0 0.00 0.06 0.06 72 1016.3
20260903135006 73 269 9.0 18.0 0.00 0.06 0.06 72 1016.5
20260903134506 72 270 10.0 18.0 0.00 0.06 0.06 73 1016.4
20260903133505 72 270 8.0 17.0 0.00 0.06 0.06 75 1016.6
20260903133006 72 269 9.0 17.0 0.00 0.06 0.06 74 1016.5
20260903132506 72 269 10.0 19.0 0.00 0.06 0.06 73 1016.4
20260903132005 72 269 11.0 19.0 0.00 0.06 0.06 74 1016.3
20260903131506 71 266 11.0 25.0 0.00 0.06 0.06 73 1016.3
20260903131006 71 265 10.0 25.0 0.00 0.06 0.06 74 1016.2
20260903130506 72 268 9.0 18.0 0.00 0.06 0.06 75 1016.2
20260903130006 72 263 9.0 18.0 0.00 0.06 0.06 75 1016.2
20260903125505 72 264 10.0 18.0 0.00 0.06 0.06 75 1016.2
20260903125005 72 263 10.0 20.0 0.00 0.06 0.06 75 1016.2
20260903124006 72 269 10.0 19.0 0.00 0.06 0.06 76 1016.2
20260903123506 72 264 11.0 23.0 0.00 0.06 0.06 77 1016.1
20260903123006 72 263 11.0 23.0 0.00 0.06 0.06 75 1016.2
20260903122506 73 257 11.0 19.0 0.00 0.06 0.06 75 1016.2
20260903122006 73 258 11.0 22.0 0.00 0.06 0.06 73 1016.0
20260903120505 74 261 11.0 22.0 0.00 0.06 0.06 74 1015.9
20260903120006 73 258 10.0 19.0 0.00 0.06 0.06 78 1015.9
20260903115505 73 257 10.0 19.0 0.00 0.06 0.06 77 1016.0
20260903115005 73 260 8.0 19.0 0.00 0.06 0.06 77 1015.9
20260903114505 74 254 9.0 19.0 0.00 0.06 0.06 76 1015.9
20260903114005 74 253 11.0 22.0 0.00 0.06 0.06 78 1015.9
20260903113505 73 259 11.0 22.0 0.00 0.06 0.06 79 1015.9
20260903113005 72 262 10.0 21.0 0.00 0.06 0.06 78 1016.0
20260903112506 73 263 9.0 19.0 0.00 0.06 0.06 81 1016.0
20260903112005 72 263 10.0 19.0 0.00 0.06 0.06 81 1015.9
20260903111505 71 263 10.0 19.0 0.00 0.06 0.06 83 1016.0
20260903110005 71 256 11.0 22.0 0.00 0.07 0.06 81 1016.0
20260903105005 71 259 12.0 23.0 0.00 0.07 0.06 81 1016.0
20260903104505 71 259 11.0 22.0 0.00 0.07 0.06 81 1016.0
20260903104005 71 262 10.0 22.0 0.00 0.07 0.06 81 1016.0
20260903103506 71 258 10.0 17.0 0.00 0.07 0.06 81 1015.9
20260903103005 71 254 10.0 18.0 0.00 0.07 0.06 82 1015.9
20260903102505 71 260 9.0 18.0 0.00 0.07 0.06 81 1015.9
20260903102005 71 263 10.0 17.0 0.00 0.07 0.06 82 1016.0
20260903101506 71 263 10.0 17.0 0.00 0.07 0.06 82 1016.0
20260903101005 71 262 10.0 20.0 0.00 0.07 0.06 84 1015.9
20260903100505 70 258 10.0 20.0 0.00 0.07 0.06 85 1015.8
20260903100005 70 259 9.0 18.0 0.00 0.07 0.06 86 1015.8
20260903095505 70 254 10.0 18.0 0.00 0.07 0.06 86 1015.8
20260903095006 70 251 11.0 20.0 0.00 0.07 0.06 86 1015.8
20260903094506 70 252 10.0 20.0 0.00 0.07 0.06 86 1015.7
20260903094005 70 256 10.0 17.0 0.00 0.07 0.06 86 1015.7
20260903093505 70 259 8.0 17.0 0.00 0.07 0.06 86 1015.7
20260903093005 70 256 7.0 15.0 0.00 0.07 0.06 88 1015.7
20260903092006 69 259 8.0 19.0 0.00 0.07 0.06 88 1015.7
20260903091505 69 266 8.0 19.0 0.00 0.07 0.06 89 1015.9
20260903091005 69 268 7.0 14.0 0.00 0.07 0.06 91 1015.7
20260903090506 69 258 6.0 14.0 0.00 0.07 0.06 91 1015.5
20260903090005 69 259 7.0 16.0 0.00 0.07 0.06 92 1015.5
20260903085505 69 256 8.0 16.0 0.00 0.07 0.06 92 1015.4
20260903085007 69 249 8.0 16.0 0.00 0.07 0.06 93 1015.4
20260903084505 68 251 7.0 14.0 0.00 0.07 0.06 93 1015.3
20260903083006 68 229 5.0 13.0 0.00 0.07 0.06 94 1015.0
20260903082505 67 238 4.0 13.0 0.00 0.07 0.06 95 1015.0
20260903082005 67 251 5.0 12.0 0.01 0.07 0.06 95 1015.1
20260903081505 67 247 5.0 12.0 0.01 0.07 0.06 95 1015.2
20260903081005 67 239 5.0 14.0 0.01 0.07 0.06 95 1015.2
20260903080506 67 231 6.0 14.0 0.01 0.07 0.06 95 1015.2
20260903080006 67 240 6.0 12.0 0.01 0.07 0.06 95 1015.1
20260903075006 66 242 7.0 15.0 0.02 0.07 0.06 95 1015.2
20260903074505 66 251 7.0 15.0 0.02 0.07 0.06 95 1015.1
20260903074006 66 248 7.0 13.0 0.02 0.07 0.06 95 1015.3
20260903073505 66 242 7.0 13.0 0.03 0.07 0.06 95 1015.2
20260903073006 66 234 6.0 16.0 0.04 0.07 0.06 95 1015.3
20260903072506 66 229 7.0 16.0 0.04 0.07 0.06 95 1015.1
20260903072005 66 231 6.0 14.0 0.04 0.06 0.05 95 1015.2
20260903071506 66 233 6.0 16.0 0.04 0.06 0.05 95 1015.0
20260903070506 65 234 5.0 11.0 0.04 0.06 0.05 94 1015.3
20260903070005 65 230 5.0 11.0 0.03 0.06 0.04 94 1015.3
20260903065005 65 219 5.0 13.0 0.03 0.05 0.03 94 1015.3
20260903064506 65 216 5.0 13.0 0.03 0.05 0.03 94 1015.2
20260903063505 65 218 5.0 11.0 0.02 0.04 0.02 93 1015.2
20260903063005 65 219 4.0 12.0 0.02 0.03 0.02 93 1015.2
20260903062505 65 216 5.0 12.0 0.02 0.03 0.02 93 1015.2
20260903062005 65 223 5.0 11.0 0.01 0.02 0.01 92 1015.2
20260903061505 65 223 5.0 11.0 0.01 0.02 0.01 92 1015.1
20260903061005 65 221 5.0 11.0 0.01 0.02 0.01 91 1015.1
20260903060505 66 219 5.0 13.0 0.01 0.02 0.01 90 1015.1
20260903060006 66 215 5.0 13.0 0.01 0.02 0.01 90 1015.0
20260903055505 66 228 5.0 13.0 0.00 0.02 0.00 89 1015.0
20260903053506 67 249 7.0 18.0 0.00 0.02 0.00 87 1015.0
20260903053005 67 249 8.0 18.0 0.00 0.02 0.00 87 1015.1
20260903052505 67 240 8.0 16.0 0.00 0.02 0.00 86 1014.9
20260903052005 67 238 8.0 16.0 0.00 0.02 0.00 86 1015.0
20260903051506 67 231 7.0 18.0 0.00 0.02 0.00 85 1015.0
20260903051005 67 230 7.0 18.0 0.00 0.02 0.00 85 1014.9
20260903050505 67 234 6.0 12.0 0.00 0.02 0.00 85 1014.8
20260903050006 67 223 5.0 12.0 0.00 0.02 0.00 85 1014.8
20260903045505 66 222 6.0 14.0 0.00 0.02 0.00 85 1014.9
20260903045005 66 222 7.0 14.0 0.00 0.02 0.00 86 1015.0
20260903044505 66 219 7.0 15.0 0.00 0.02 0.00 86 1014.9
20260903044006 66 218 6.0 15.0 0.00 0.02 0.00 87 1015.0
20260903043505 66 214 5.0 13.0 0.00 0.02 0.00 87 1015.0
20260903043005 66 210 5.0 13.0 0.00 0.02 0.00 87 1015.0
20260903042005 66 211 6.0 16.0 0.00 0.02 0.00 86 1014.7
20260903041505 66 214 8.0 17.0 0.00 0.02 0.00 85 1014.8
20260903041005 66 216 8.0 17.0 0.00 0.02 0.00 85 1014.9
20260903040505 66 217 7.0 17.0 0.00 0.02 0.00 85 1014.9
20260903040008 67 221 7.0 17.0 0.00 0.02 0.00 84 1015.0
20260903035505 66 218 7.0 15.0 0.00 0.02 0.00 84 1015.0
20260903035006 66 214 7.0 19.0 0.00 0.02 0.00 84 1015.1
20260903034505 66 217 7.0 19.0 0.00 0.02 0.00 84 1015.2
20260903034005 66 220 8.0 17.0 0.00 0.02 0.00 84 1015.2
20260903033505 66 224 7.0 16.0 0.00 0.02 0.00 84 1015.4
20260903032505 66 219 6.0 16.0 0.00 0.02 0.00 85 1015.7
20260903032005 65 216 5.0 12.0 0.00 0.02 0.00 85 1015.6
20260903031506 65 213 5.0 14.0 0.00 0.02 0.00 85 1015.3
20260903031005 65 209 7.0 15.0 0.00 0.02 0.00 85 1015.3
20260903030505 65 208 7.0 15.0 0.00 0.02 0.00 85 1015.5
20260903030006 66 212 7.0 16.0 0.00 0.02 0.00 85 1015.2
20260903025505 66 214 8.0 22.0 0.00 0.02 0.00 84 1015.2
20260903025007 66 222 9.0 22.0 0.00 0.02 0.00 83 1015.2
20260903024505 66 223 9.0 18.0 0.00 0.02 0.00 83 1015.4
20260903024005 67 214 8.0 18.0 0.00 0.02 0.00 81 1015.4
20260903023505 67 217 6.0 16.0 0.00 0.02 0.00 81 1015.5
20260903022505 66 220 5.0 13.0 0.00 0.02 0.00 82 1015.8
20260903022005 66 224 5.0 14.0 0.00 0.02 0.00 82 1015.8
20260903021005 66 226 6.0 15.0 0.00 0.02 0.00 82 1016.0
20260903020506 66 222 5.0 12.0 0.00 0.02 0.00 82 1015.9
20260903020005 66 221 5.0 12.0 0.00 0.02 0.00 81 1015.9
20260903015505 66 215 6.0 15.0 0.00 0.02 0.00 81 1015.9
20260903015005 66 211 5.0 15.0 0.00 0.02 0.00 80 1015.9
20260903014505 66 212 4.0 13.0 0.00 0.02 0.00 80 1015.9
20260903014005 66 209 5.0 13.0 0.00 0.02 0.00 80 1016.0
20260903013006 66 213 4.0 12.0 0.00 0.02 0.00 79 1016.1
20260903012505 66 210 4.0 12.0 0.00 0.02 0.00 78 1016.1
20260903011506 66 205 5.0 12.0 0.00 0.02 0.00 78 1016.1
20260903011005 66 207 6.0 18.0 0.00 0.02 0.00 77 1016.2
20260903010506 66 207 6.0 18.0 0.00 0.02 0.00 77 1016.3
20260903010005 66 206 5.0 13.0 0.00 0.02 0.00 77 1016.5
20260903005505 66 203 5.0 13.0 0.00 0.02 0.00 77 1016.5
20260903005005 66 205 5.0 13.0 0.00 0.02 0.00 77 1016.5
20260903004505 66 212 5.0 16.0 0.00 0.02 0.00 78 1016.5
20260903004005 66 213 5.0 16.0 0.00 0.02 0.00 78 1016.7
20260903003505 65 210 4.0 12.0 0.00 0.02 0.00 78 1016.7
20260903003005 66 207 5.0 17.0 0.00 0.02 0.00 78 1016.8
20260903002505 66 209 6.0 17.0 0.00 0.02 0.00 76 1016.9
20260903002005 66 210 5.0 14.0 0.00 0.02 0.00 76 1016.9
20260903001506 66 210 5.0 11.0 0.00 0.02 0.00 76 1016.9
20260903001005 66 212 5.0 11.0 0.00 0.02 0.00 75 1016.9
20260903000005 66 206 6.0 13.0 0.00 0.02 0.00 75 1017.0
20260902235505 66 209 5.0 13.0 0.00 0.02 0.00 76 1017.0
20260902235005 66 205 5.0 12.0 0.00 0.02 0.00 75 1017.0
20260902234505 66 206 5.0 14.0 0.00 0.02 0.00 75 1017.2
20260902234005 66 210 6.0 14.0 0.00 0.02 0.00 75 1017.2
20260902233005 66 207 6.0 15.0 0.00 0.02 0.00 75 1017.1
20260902232505 66 206 6.0 13.0 0.00 0.02 0.00 75 1017.2
20260902232006 66 208 6.0 13.0 0.00 0.02 0.00 76 1017.2
20260902231505 65 208 4.0 12.0 0.00 0.02 0.00 77 1017.3
20260902231005 65 207 3.0 10.0 0.00 0.02 0.00 78 1017.5
20260902230506 65 196 2.0 9.0 0.00 0.02 0.00 79 1017.5
20260902230005 65 189 2.0 10.0 0.00 0.02 0.00 79 1017.5
20260902225506 64 188 2.0 10.0 0.00 0.02 0.00 80 1017.5
20260902225006 64 188 3.0 7.0 0.00 0.02 0.00 81 1017.6
20260902224505 64 192 2.0 7.0 0.00 0.02 0.00 81 1017.6
20260902224005 64 197 1.0 4.0 0.00 0.02 0.00 82 1017.7
20260902223506 64 196 1.0 4.0 0.00 0.02 0.00 81 1017.8
20260902222506 64 206 2.0 8.0 0.00 0.02 0.00 81 1017.8
20260902222005 64 214 2.0 7.0 0.00 0.02 0.00 80 1017.9
20260902221505 65 223 3.0 10.0 0.00 0.02 0.00 79 1018.0